[[{"header":{"parameterUnit":"m.s-1","parameterCategory":1,"la1":30.2992,"la2":30.254,"lo1":-89.0895,"lo2":-89.0443,"dy":0.0025,"dx":0.0025,"nx":19,"ny":19,"refTime":"2026-04-25T21:00:00:Z","depth":0,"parameterNumber":2,"parameterNumberName":"U-component_of_WINDS"},"data":[0,0,0,0.033,0.0333,0.0464,0.0465,0.0619,0.0621,0,0,0,0,0,0,0,0,0,0,0,0.0283,0.0283,0.033,0.0333,0.0464,0.0465,0.0619,0.0621,0,0,0,0,0,0,0,0,0,0,0,0.0282,0.0283,0.0284,0.0333,0.0464,0.0465,0.0619,0.0525,0,0,0,0,0,0,0,0,0,0,0.0399,0.0347,0.0283,0.0284,0.0334,0.0464,0.0465,0.052,0.053,0.0554,0,0.0572,0,0.0598,0.063,0.063,0,0,0,0.034,0.0338,0.0382,0.0284,0.0335,0.0464,0.0407,0.0526,0.0538,0.0567,0.0574,0.058,0.0601,0.0631,0.0632,0.0742,0.0742,0,0,0.0332,0.0302,0.0374,0.0389,0.0367,0.0403,0.0411,0.0533,0.0539,0.0575,0.0584,0.0604,0.0632,0.0633,0.0742,0.0742,0,0,0,0.0307,0.0296,0.0337,0.0382,0.0406,0.0406,0.0416,0.0534,0.0549,0.0586,0.0605,0.0633,0.0634,0.0742,0.0742,0.0722,0,0,0,0.0303,0.0282,0.0333,0.0316,0.0404,0.0472,0.0413,0.0541,0.0556,0.0605,0.0633,0.0636,0.0742,0.0742,0.0722,0.0718,0,0,0,0.0277,0.0279,0.0295,0.0314,0.0369,0.047,0.0493,0.0545,0.0567,0.0631,0.0636,0.0742,0.0742,0.0722,0.0718,0.0738,0,0,0,0.0241,0.0276,0.0294,0.0341,0.0368,0.0457,0.0493,0.0561,0.0613,0.0633,0.0742,0.0742,0.0722,0.0718,0.0738,0.0748,0.075,0,0,0.0268,0.0278,0.0308,0.0328,0.0406,0.0439,0.0514,0.0591,0.0626,0.0701,0.0705,0.0722,0.0718,0.0738,0.077,0.0771,0,0,0,0.0307,0.0328,0.0355,0.0402,0.0461,0.0511,0.058,0.0608,0.0674,0.0658,0.0736,0.0734,0.0747,0.0753,0.0754,0.0767,0.0744,0.0744,0.0744,0.0302,0.0343,0.0395,0.0452,0.0497,0.0567,0.0608,0.0658,0.0687,0.0704,0.0727,0.0742,0.0748,0.0749,0.0762,0.0736,0.0736,0.0736,0.0736,0.0346,0.0382,0.0419,0.0482,0.0525,0.058,0.0648,0.0666,0.0723,0.0728,0.0742,0.0744,0.0749,0.0762,0.0735,0.0735,0.0735,0.0736,0.0736,0.0347,0.0372,0.0405,0.0477,0.0528,0.0585,0.0637,0.0675,0.0711,0.0724,0.0752,0.0752,0.0757,0.0734,0.0735,0.0735,0.0735,0.0735,0.0735,0.0336,0.0374,0.0413,0.0478,0.0513,0.0563,0.0633,0.0668,0.0718,0.0741,0.0742,0.0768,0.0742,0.0734,0.0736,0.0736,0.0735,0.0735,0.0735,0.0365,0.0364,0.0424,0.0459,0.0538,0.0586,0.0633,0.0702,0.0737,0.0761,0.0785,0.0759,0.0773,0.0772,0.0766,0.0776,0.0776,0.0776,0.0776,0.0366,0.0376,0.0446,0.0499,0.0555,0.0604,0.0671,0.0725,0.0781,0.0805,0.0809,0.0804,0.0802,0.0817,0.0815,0.081,0.0831,0.0831,0.0831,0.0386,0.0403,0.0453,0.0506,0.057,0.0624,0.0688,0.0748,0.0812,0.0834,0.0825,0.0822,0.0815,0.0811,0.0833,0.083,0.0822,0,0]},{"header":{"parameterUnit":"m.s-1","parameterCategory":1,"la1":30.2992,"la2":30.254,"lo1":-89.0895,"lo2":-89.0443,"dy":0.0025,"dx":0.0025,"nx":19,"ny":19,"refTime":"2026-04-25T21:00:00:Z","depth":0,"parameterNumber":3,"parameterNumberName":"V-component_of_WINDS"},"data":[0,0,0,3.6441,3.6441,3.6437,3.6437,3.6453,3.6454,0,0,0,0,0,0,0,0,0,0,0,3.6454,3.6455,3.6441,3.6441,3.6437,3.6437,3.6453,3.6454,0,0,0,0,0,0,0,0,0,0,0,3.6454,3.6455,3.6455,3.6441,3.6437,3.6437,3.6453,3.6449,0,0,0,0,0,0,0,0,0,0,3.6449,3.6473,3.6454,3.6455,3.6441,3.6437,3.6437,3.6448,3.6449,3.6464,0,3.648,0,3.6467,3.6456,3.6456,0,0,0,3.6432,3.6473,3.646,3.6455,3.6441,3.6437,3.6436,3.6448,3.6449,3.6465,3.648,3.648,3.6468,3.6456,3.6457,3.6572,3.6573,0,0,3.6432,3.646,3.646,3.6462,3.6463,3.6436,3.6436,3.6449,3.6467,3.648,3.648,3.6468,3.6457,3.6457,3.6571,3.6572,0,0,0,3.6439,3.6461,3.6448,3.6461,3.6459,3.6437,3.6436,3.6466,3.646,3.648,3.6468,3.6457,3.6457,3.657,3.6571,3.6646,0,0,0,3.6439,3.6465,3.6448,3.6466,3.6459,3.6463,3.6454,3.6459,3.6459,3.6468,3.6457,3.6458,3.6569,3.6571,3.6642,3.6678,0,0,0,3.645,3.6466,3.6469,3.6467,3.6466,3.6462,3.6455,3.6458,3.6452,3.6456,3.6458,3.6568,3.657,3.6638,3.6671,3.6717,0,0,0,3.6471,3.6536,3.6471,3.6539,3.6467,3.6508,3.6455,3.6484,3.6496,3.6457,3.6569,3.6571,3.6637,3.6667,3.6713,3.6761,3.6783,0,0,3.6569,3.6549,3.6587,3.6528,3.6588,3.6506,3.6577,3.6562,3.6537,3.6562,3.6564,3.6643,3.6671,3.6716,3.6897,3.6915,0,0,0,3.6627,3.6655,3.6665,3.6677,3.6667,3.6661,3.6632,3.6626,3.6646,3.6555,3.6671,3.6686,3.6712,3.6733,3.6749,3.6769,3.6582,3.6582,3.6582,3.6807,3.6771,3.6831,3.6795,3.6808,3.6777,3.6784,3.6772,3.6732,3.676,3.6767,3.6882,3.6908,3.692,3.6941,3.6789,3.6789,3.6789,3.679,3.6948,3.6982,3.6927,3.6965,3.6927,3.696,3.6933,3.6903,3.6928,3.6873,3.6894,3.6837,3.694,3.6958,3.6795,3.6794,3.6793,3.6793,3.6792,3.7063,3.7072,3.7064,3.7078,3.7094,3.7054,3.7081,3.7045,3.7012,3.7032,3.7037,3.7035,3.703,3.7036,3.7037,3.7037,3.7038,3.7038,3.7038,3.7185,3.7173,3.72,3.7194,3.7197,3.7197,3.7167,3.7169,3.7163,3.7135,3.7135,3.7093,3.6957,3.6924,3.7044,3.7043,3.7042,3.7042,3.7041,3.7343,3.7302,3.7343,3.7347,3.7337,3.7355,3.7308,3.7317,3.7314,3.7328,3.7281,3.7186,3.7163,3.7151,3.7124,3.7288,3.7288,3.7288,3.7288,3.7441,3.7425,3.7459,3.7467,3.7471,3.7433,3.7482,3.7459,3.7429,3.7425,3.7395,3.7356,3.7345,3.7328,3.7312,3.7286,3.7488,3.7489,3.7489,3.7537,3.752,3.7568,3.7537,3.7527,3.7519,3.7564,3.7576,3.7533,3.7496,3.7421,3.7413,3.7348,3.7329,3.7291,3.7267,3.7218,0,0]}]]